Showing default

M-SEL, 63231

Orbit data source: Space-Track

M-SEL, 63231 is an American payload satellite in SSO that was launched on Sat, 15 Mar 2025 UTC via an FALCON 9 launch vehicle from the Air Force Western Test Range (AFWTR). Payload-class satellites include a variety of spacecraft equipped with specific instruments for various scientific and technological missions. These include communications satellites like Starlink; space stations such as the ISS; scientific satellites like the Hubble; Earth observation satellites from companies like Planet Labs, Umbra, and HawkEye 360; GPS; miniature CubeSats for education and research; and military/defense satellites.

Loading next visibility...
Identifier
63231, 2025-052X
Orbit
SSO
Country
Flag of USUS
Related business
Manufacturer
Astro Digital
Mission
Operational Commercial Technology
Bus & Motor
CORVUS-MICRO, Unknown motor
Mass
32 kg wet, 32 kg dry
Launch date (UTC)
2025-03-15 (1 year ago)
Launch vehicle
FALCON 9
Launch site
Air Force Western Test Range (AFWTR)
Object type
Payload
Rocket body
Debris
Shape & HBR
Box, 0.5 m
Radar Cross Section
0.400 m², Medium (>0.1 m² and < 1m²)

Expand to show TLE details & history
Last TLE update: 19 hours ago

TLE from 19 hours ago
0 M-SEL
1 63231U 25052X   26072.22854946  .00009624  00000-0  39388-3 0  9991
2 63231  97.4034 326.8668 0006554 117.0204 243.1703 15.24507814 55296
Epoch: 2026-03-13T05:29Z
TLE epoch observation values (Epoch: 2026-03-13T05:29:06.673Z)
Latitude
-0.00004°
Longitude
73.72191°
Altitude
497.395 km
Speed
7.615 km/s
True Right ascension
21h 47m 28s
True Declination
0° 00' 00"
Sunlit
Object was in daylight at epoch
Visualization orbit readout
Latitude
Unknown
Longitude
Unknown
Altitude
Unknown
Speed
Unknown
Apparent Right ascension
Unknown
Apparent Declination
Unknown
Sunlit
N/A
Visualization observer readout
Local Sidereal Time
04:31:42
Azimuth
Unknown
Elevation
Unknown
Doppler factor
Unknown
Orbital elements
Apogee altitude
493.724 km
Perigee altitude
484.723 km
Semi-major axis
6,867.36 km
Eccentricity
0.00066
Inclination
97.4034°
RAAN
326.8668°
Arg. of periapsis
117.0204°
True anomaly
243.10331°
Mean anomaly
243.1703°
Eccentric anomaly
243.1368°
Mean motion
3.8138 °/min
Orbital period
94.39 mins
BSTAR
0.00039388
Loading maneuver chart data...
Computing Atmospheric mass density...
Loading historical data...
Loading historical data...
Loading historical data...
Loading historical data...
Loading historical data...
Loading historical data...
Loading historical data...

Documentation

Showing up to 5 results
|